Temperature
4 3 2 1 -0 -1 -1 -2 -3 -3 -4 -4 -4 -4 -4 -4 -5 -5 -5 -6 -6 -6 -6 -6 -6 -6 -6 -5 -5 -5 -4 -3 -2 -1 1 4 6 7 9 10 10 11 11
4 3 2 0 -1 -2 -3 -3 -4 -4 -5 -5 -6 -6 -6 -6 -6 -6 -6 -6 -6 -6 -6 -6 -7 -7 -6 -6 -6 -5 -5 -4 -3 -3 -2 -0 3 6 8 9 10 10 11
3 2 1 -0 -2 -3 -3 -4 -5 -5 -6 -6 -6 -6 -6 -6 -6 -6 -7 -7 -7 -7 -7 -7 -7 -7 -7 -7 -7 -6 -5 -5 -4 -3 -3 -1 0 0 6 8 9 9 10
3 2 1 -1 -2 -3 -4 -4 -5 -6 -6 -7 -7 -8 -8 -8 -8 -8 -8 -8 -8 -8 -8 -8 -8 -8 -8 -8 -7 -7 -6 -5 -4 -4 -3 -2 -2 -1 0 6 8 8 9
3 1 0 -1 -3 -4 -4 -5 -6 -6 -7 -7 -8 -8 -8 -9 -9 -9 -9 -9 -9 -9 -9 -9 -9 -9 -9 -8 -8 -7 -7 -6 -5 -4 -4 -3 -2 -2 -1 -0 5 7 8
2 1 -1 -2 -3 -4 -5 -5 -6 -7 -7 -7 -8 -9 -9 -9 -9 -9 -10 -10 -10 -10 -10 -10 -10 -10 -9 -9 -8 -8 -7 -6 -6 -5 -4 -4 -3 -2 -2 -1 0 2 6
1 -0 -1 -3 -4 -4 -5 -6 -6 -7 -7 -8 -8 -9 -9 -10 -10 -10 -10 -10 -10 -10 -10 -11 -11 -10 -10 -9 -9 -8 -7 -7 -6 -5 -5 -4 -4 -3 -2 -1 -1 0 3
1 -1 -2 -3 -4 -5 -5 -6 -6 -7 -8 -8 -9 -9 -10 -10 -10 -11 -11 -11 -11 -11 -11 -11 -11 -11 -11 -10 -9 -9 -8 -7 -6 -6 -5 -5 -4 -3 -2 -1 -1 -0 1
-0 -1 -2 -3 -4 -5 -5 -6 -7 -7 -8 -9 -9 -9 -10 -10 -11 -11 -11 -11 -11 -12 -12 -12 -12 -11 -11 -10 -10 -9 -8 -7 -7 -6 -6 -6 -5 -4 -3 -2 -1 -1 0
-1 -2 -3 -4 -4 -5 -6 -6 -7 -8 -8 -9 -9 -10 -10 -11 -11 -11 -12 -12 -12 -12 -12 -12 -12 -12 -11 -11 -10 -9 -8 -8 -7 -7 -6 -6 -5 -4 -3 -2 -1 -1 -0
-1 -2 -3 -4 -5 -5 -6 -7 -8 -8 -9 -9 -9 -10 -11 -11 -12 -12 -12 -12 -12 -12 -12 -12 -12 -12 -12 -11 -11 -9 -9 -8 -7 -7 -7 -6 -6 -5 -4 -3 -2 -1 0
-2 -3 -4 -4 -5 -6 -6 -7 -8 -9 -9 -9 -10 -10 -11 -11 -12 -12 -12 -13 -13 -13 -13 -13 -13 -13 -12 -12 -11 -10 -9 -8 -8 -8 -7 -7 -6 -5 -4 -3 -2 -1 -0
-2 -3 -4 -5 -5 -6 -7 -8 -8 -9 -9 -9 -10 -10 -11 -12 -12 -13 -13 -13 -13 -13 -13 -13 -13 -13 -12 -12 -11 -10 -9 -8 -8 -8 -8 -7 -6 -5 -4 -3 -2 -1 -0
-3 -4 -5 -5 -6 -7 -7 -8 -8 -9 -9 -9 -10 -11 -11 -12 -13 -13 -13 -13 -13 -13 -13 -13 -13 -13 -13 -12 -11 -10 -9 -8 -8 -8 -8 -7 -6 -6 -5 -4 -2 -2 -1
-4 -4 -5 -6 -6 -7 -8 -8 -8 -9 -9 -10 -10 -11 -12 -13 -13 -14 -14 -14 -14 -14 -14 -14 -13 -13 -13 -12 -11 -9 -9 -8 -8 -8 -8 -7 -7 -6 -5 -4 -3 -2 -1
-4 -5 -5 -6 -6 -7 -8 -8 -8 -9 -9 -10 -11 -12 -13 -13 -13 -14 -14 -14 -14 -14 -14 -14 -13 -13 -13 -12 -10 -9 -9 -8 -8 -8 -8 -7 -7 -7 -6 -5 -4 -3 -2
-4 -5 -6 -6 -7 -7 -8 -8 -8 -9 -10 -11 -12 -12 -13 -13 -13 -14 -13 -13 -13 -14 -14 -14 -13 -13 -13 -11 -10 -9 -9 -9 -9 -8 -8 -8 -8 -7 -7 -6 -5 -4 -4
-4 -5 -6 -6 -7 -7 -8 -8 -8 -9 -10 -11 -12 -12 -13 -13 -13 -13 -13 -13 -13 -13 -13 -13 -13 -13 -12 -11 -10 -9 -9 -9 -9 -9 -9 -9 -8 -8 -8 -7 -7 -6 -5
-5 -5 -6 -6 -7 -7 -8 -8 -8 -10 -11 -11 -12 -12 -13 -13 -13 -13 -13 -13 -13 -13 -13 -13 -13 -13 -12 -11 -10 -10 -10 -10 -9 -9 -9 -9 -9 -9 -8 -8 -8 -7 -6
-5 -5 -6 -6 -7 -7 -7 -8 -9 -10 -11 -11 -12 -12 -13 -13 -13 -13 -13 -13 -13 -13 -13 -13 -13 -13 -12 -12 -11 -10 -10 -10 -10 -10 -10 -10 -9 -9 -9 -9 -9 -9 -8
-5 -5 -6 -6 -7 -7 -8 -9 -9 -10 -11 -11 -12 -12 -13 -13 -13 -13 -13 -13 -13 -13 -13 -13 -13 -13 -12 -12 -11 -11 -11 -11 -11 -11 -11 -11 -10 -10 -10 -10 -10 -10 -9
-5 -5 -6 -6 -7 -7 -8 -9 -9 -10 -10 -11 -12 -12 -13 -13 -13 -13 -13 -13 -13 -13 -13 -13 -13 -13 -13 -12 -12 -11 -11 -11 -11 -11 -11 -11 -11 -11 -11 -11 -11 -10 -9
-5 -5 -6 -6 -6 -7 -8 -9 -9 -9 -10 -11 -12 -12 -12 -13 -13 -13 -13 -13 -13 -13 -13 -13 -13 -13 -13 -13 -13 -12 -12 -12 -12 -12 -12 -12 -12 -12 -12 -12 -11 -11 -10
-5 -5 -6 -6 -6 -7 -8 -9 -9 -9 -9 -11 -12 -12 -12 -13 -13 -13 -14 -13 -13 -13 -13 -13 -13 -13 -13 -13 -13 -13 -13 -13 -13 -13 -13 -13 -13 -13 -13 -12 -12 -12 -12
-5 -5 -6 -6 -7 -7 -8 -8 -9 -9 -9 -11 -12 -12 -13 -13 -13 -13 -14 -13 -13 -13 -13 -13 -13 -13 -13 -13 -13 -13 -13 -13 -13 -13 -13 -13 -13 -14 -14 -14 -13 -13 -12
-5 -5 -5 -6 -6 -7 -7 -8 -8 -8 -9 -11 -11 -12 -12 -13 -13 -13 -13 -14 -14 -13 -14 -14 -13 -14 -13 -13 -13 -13 -13 -13 -14 -14 -14 -14 -14 -15 -15 -15 -15 -14 -14
Wind_Speed
9 9 9 10 10 11 12 13 13 14 14 12 13 13 13 12 13 19 23 24 24 26 23 18 18 17 12 14 15 14 14 12 12 12 14 12 13 14 12 12 11 11 8
9 9 9 9 10 11 12 12 12 12 12 11 11 9 11 9 14 19 22 23 24 25 22 18 15 15 12 14 15 15 12 12 11 11 11 7 8 6 9 9 11 12 9
9 9 8 9 10 10 11 13 12 12 13 17 13 12 8 9 9 11 8 20 24 24 22 19 17 15 12 12 15 15 15 13 12 9 7 6 5 12 11 12 8 7 8
8 8 9 9 9 9 9 10 11 10 12 15 11 14 12 12 13 11 10 19 24 24 23 21 20 16 12 13 13 14 14 14 12 10 8 9 10 7 8 11 12 13 10
8 9 9 9 9 9 9 9 10 10 11 13 11 11 11 10 11 12 12 10 17 21 22 22 21 17 12 11 14 14 14 12 12 11 10 11 10 11 10 14 15 12 10
9 9 8 8 8 8 8 9 10 10 9 10 10 11 12 13 14 14 12 12 10 13 19 23 21 19 15 12 13 14 15 13 14 11 10 10 9 9 9 11 15 16 14
9 8 9 8 8 9 9 9 10 11 11 11 11 11 12 11 12 13 12 13 12 11 10 20 18 17 17 18 15 15 15 15 14 12 10 11 11 11 12 12 13 16 15
8 8 8 8 8 9 9 10 11 11 11 11 11 9 10 9 9 11 12 12 11 10 15 20 20 20 21 20 15 14 15 14 14 14 13 11 12 11 12 12 12 13 13
8 8 8 8 8 8 9 10 10 11 11 11 11 10 10 11 11 10 9 7 10 16 19 20 18 19 19 17 14 13 15 15 13 13 12 11 11 11 11 12 12 12 13
8 8 8 8 8 8 8 9 9 10 10 11 11 14 11 10 10 9 11 11 12 17 16 15 15 16 16 16 14 15 16 16 15 11 12 12 11 12 11 11 12 12 13
8 8 8 8 8 8 8 8 9 10 10 11 11 12 12 10 11 9 11 10 12 15 13 14 15 17 17 15 15 16 18 17 15 12 13 14 15 12 11 11 11 11 11
8 8 8 9 8 9 9 9 10 10 11 11 12 13 12 11 12 12 12 15 13 14 15 15 16 17 17 17 16 18 19 18 14 12 13 14 13 15 13 11 11 10 9
8 8 8 9 9 9 10 10 10 11 12 13 14 14 13 13 14 14 13 16 14 12 13 13 15 17 18 18 16 17 18 16 12 10 12 14 14 14 12 13 11 9 8
8 8 9 9 9 10 10 11 12 12 14 14 14 14 15 15 15 15 15 15 14 13 12 13 15 16 18 17 16 17 18 13 10 9 11 13 14 14 14 12 11 8 7
9 9 9 9 10 11 11 11 12 13 13 14 14 14 14 15 15 15 15 14 14 16 13 14 15 15 15 15 18 17 15 11 9 9 11 13 16 18 15 11 11 9 5
8 9 9 10 11 11 11 12 11 12 12 13 13 14 14 15 15 15 15 15 14 13 13 14 15 16 16 25 29 20 11 9 9 10 11 13 14 17 20 22 21 19 11
8 8 9 9 10 10 10 12 12 13 13 13 13 12 12 13 14 15 14 13 12 11 12 13 14 15 18 27 27 24 13 11 10 10 11 12 14 17 14 18 22 22 26
7 7 8 9 9 8 9 10 11 13 13 12 11 11 12 12 12 12 12 11 10 10 9 11 13 14 18 27 26 24 14 11 12 11 11 11 13 17 18 15 16 17 18
5 6 7 8 9 9 10 11 13 13 11 11 12 12 12 12 12 12 11 10 10 10 9 10 12 13 16 26 26 22 9 10 12 13 14 14 13 25 26 18 16 16 16
5 6 7 7 8 9 10 11 13 12 12 13 13 13 12 12 12 12 11 10 10 10 12 12 12 12 13 24 27 22 9 10 10 11 13 20 22 26 26 17 15 16 15
6 7 8 8 8 10 10 11 11 12 12 13 13 12 12 12 11 10 9 10 11 11 12 12 11 11 15 21 27 24 11 11 10 10 10 13 26 27 27 22 16 19 16
6 7 8 9 9 10 10 10 11 11 12 13 13 12 12 12 12 10 9 9 10 10 10 10 11 9 11 18 22 26 21 16 10 10 8 13 25 26 27 21 24 26 20
6 6 7 9 9 10 9 10 11 12 13 13 13 12 12 10 9 9 9 8 8 8 9 10 10 10 9 13 24 24 24 22 12 10 18 21 23 22 18 25 27 21 14
5 6 7 9 10 10 9 9 10 11 12 13 12 12 11 10 9 9 8 8 8 8 8 9 10 9 9 8 8 9 11 16 13 11 16 21 22 19 20 20 17 14 14
5 6 7 8 9 9 9 9 9 10 11 11 10 11 11 10 9 10 9 11 8 11 8 6 7 8 7 13 19 13 9 8 11 11 9 10 11 12 12 12 12 12 12
5 6 7 8 9 9 9 9 8 10 11 11 10 9 8 9 9 8 9 17 18 19 18 16 13 10 15 18 19 19 19 20 20 13 8 10 11 11 12 12 11 11 12
Wind_Direction
31 35 32 29 17 11 8 360 357 354 352 352 345 342 340 337 334 342 345 341 341 339 336 339 337 335 334 332 331 332 327 327 326 324 323 304 282 268 264 259 258 252 243
21 19 23 27 16 10 6 357 356 351 351 349 340 336 331 329 332 340 336 337 340 338 338 339 337 335 331 329 330 329 325 324 332 328 323 317 309 329 296 268 248 242 235
19 10 17 24 15 11 5 355 350 348 348 347 341 338 329 331 335 336 331 337 339 336 335 337 338 333 331 327 328 326 326 323 320 317 313 316 321 329 308 310 293 264 238
22 14 20 20 13 11 2 352 346 344 346 347 343 341 340 337 335 333 328 335 336 333 334 338 338 332 329 325 324 326 321 317 315 314 300 289 293 295 309 314 319 321 295
27 22 24 18 12 10 359 347 342 342 344 346 341 338 334 332 330 329 330 332 331 331 335 338 336 330 325 322 322 320 316 313 308 308 304 296 284 268 276 291 301 309 306
28 22 18 13 8 7 355 344 342 341 342 343 339 338 333 333 332 333 332 331 328 330 335 335 333 328 324 322 320 318 314 310 305 304 303 298 287 276 268 273 287 296 301
26 14 8 5 5 360 351 345 344 341 342 341 340 335 332 331 329 332 330 329 330 331 329 333 330 326 324 323 323 321 315 309 305 304 302 300 290 282 273 269 275 284 291
25 15 7 8 3 355 350 346 342 339 340 340 338 331 331 329 326 327 325 325 327 326 327 330 327 326 325 325 324 322 317 313 309 306 304 301 295 284 275 265 265 272 280
25 14 7 9 0 353 350 344 340 337 338 339 336 330 330 327 326 324 321 323 325 327 329 327 327 327 325 325 325 322 318 315 311 306 305 304 298 289 281 271 256 256 265
24 11 7 5 358 353 346 342 338 335 335 337 335 333 327 324 325 323 324 325 325 326 326 327 329 328 327 326 325 322 319 317 314 309 311 310 304 299 288 278 263 250 252
24 11 6 360 353 350 344 340 337 338 337 335 330 326 325 325 326 324 324 323 322 325 326 329 330 329 328 327 324 322 320 317 314 315 317 314 310 305 298 286 272 255 244
27 14 4 353 350 348 344 341 340 340 337 333 328 325 326 327 326 325 325 324 321 323 327 330 329 329 328 325 323 321 321 317 315 319 321 318 316 311 306 299 289 274 258
21 10 360 351 348 345 343 342 343 340 335 333 329 327 328 328 327 327 326 324 321 322 327 330 329 328 325 322 319 319 318 315 313 318 322 320 318 317 314 308 298 284 272
16 5 355 348 345 344 342 341 341 338 334 333 329 328 327 328 326 325 324 323 323 325 326 328 327 324 322 317 315 318 319 316 312 317 322 323 321 322 321 317 312 298 277
9 2 351 344 342 341 338 340 335 332 332 329 326 324 324 323 322 324 324 324 325 327 324 325 322 320 320 318 321 322 326 320 318 324 331 331 337 345 349 346 347 340 313
3 353 346 342 339 334 335 334 328 329 327 319 317 318 321 324 326 326 328 327 326 324 324 323 320 320 324 324 329 339 337 336 337 339 343 346 350 1 4 9 14 17 16
357 346 341 337 329 329 331 326 327 324 317 312 312 316 320 325 327 330 328 325 323 323 322 320 320 319 321 332 339 352 2 355 352 359 2 4 5 19 14 13 18 19 24
350 339 333 324 320 325 325 326 323 316 312 313 319 324 325 325 325 324 324 324 322 322 318 321 324 325 330 341 349 3 6 1 6 9 11 14 15 29 28 20 22 22 20
352 334 327 323 326 330 333 328 318 314 318 329 334 330 327 328 329 330 331 331 328 325 325 327 327 330 334 345 360 12 5 8 12 13 19 26 27 32 32 25 24 24 20
352 341 334 331 332 333 327 318 317 326 337 338 334 330 330 330 332 336 336 335 335 337 337 335 333 334 340 354 5 20 17 17 20 19 13 24 34 33 35 28 24 28 19
357 354 341 336 332 321 315 316 325 337 336 335 331 331 332 332 337 339 338 339 343 343 341 341 342 348 357 360 7 21 29 29 28 26 17 21 32 34 35 35 31 32 28
2 356 342 330 323 316 317 325 334 333 336 335 334 335 335 341 350 344 343 343 346 347 346 348 353 358 358 5 8 16 28 37 27 22 18 26 33 33 34 36 33 33 30
2 349 335 325 323 318 325 334 332 339 339 337 337 337 338 344 348 347 347 347 348 351 357 359 359 2 6 7 17 19 21 25 28 21 28 31 34 32 30 31 33 31 30
352 341 335 327 319 320 333 332 335 342 338 337 339 341 343 347 349 352 352 352 351 355 5 0 358 1 1 2 13 11 15 21 27 25 26 28 30 33 30 31 30 28 32
341 333 321 311 314 326 333 336 345 343 338 337 340 344 347 346 349 354 356 358 355 7 12 356 357 5 4 17 22 24 19 22 36 32 24 24 25 26 26 27 28 27 27
313 314 316 319 321 328 331 338 346 344 339 342 346 347 348 350 351 350 354 3 6 10 14 14 17 11 17 20 21 24 28 36 37 36 29 28 26 25 24 24 25 26 27
Height
1610 1607 1604 1599 1594 1589 1584 1578 1572 1566 1560 1554 1548 1542 1537 1533 1529 1526 1522 1517 1512 1508 1504 1500 1495 1490 1486 1482 1478 1473 1469 1466 1462 1457 1451 1447 1447 1447 1448 1450 1453 1456 1459
1608 1606 1603 1598 1593 1588 1583 1577 1571 1566 1560 1555 1549 1544 1538 1533 1529 1524 1520 1515 1511 1506 1503 1498 1494 1489 1484 1480 1476 1472 1468 1465 1463 1459 1453 1447 1443 1442 1442 1444 1446 1449 1452
1607 1605 1601 1597 1592 1587 1581 1576 1570 1565 1560 1554 1548 1542 1536 1531 1526 1520 1516 1513 1509 1505 1501 1497 1492 1487 1483 1478 1474 1471 1467 1463 1461 1460 1459 1454 1447 1440 1436 1437 1439 1443 1446
1606 1604 1600 1595 1591 1586 1581 1575 1570 1564 1559 1553 1547 1541 1536 1530 1525 1520 1515 1511 1506 1502 1499 1494 1490 1485 1481 1476 1472 1469 1465 1462 1459 1457 1456 1455 1452 1449 1439 1431 1431 1434 1437
1605 1602 1599 1595 1590 1585 1580 1574 1569 1563 1558 1552 1547 1541 1536 1530 1524 1519 1513 1508 1503 1500 1496 1491 1486 1481 1477 1473 1469 1465 1462 1459 1456 1453 1451 1450 1448 1446 1444 1435 1426 1426 1429
1604 1601 1598 1594 1589 1584 1578 1573 1567 1562 1556 1551 1545 1540 1534 1528 1522 1516 1510 1505 1500 1496 1492 1487 1482 1478 1474 1469 1465 1461 1458 1454 1452 1449 1447 1445 1443 1441 1440 1436 1430 1424 1422
1603 1600 1596 1592 1587 1582 1576 1571 1565 1560 1554 1549 1543 1538 1532 1527 1521 1515 1509 1503 1498 1493 1488 1484 1479 1474 1470 1465 1461 1456 1453 1449 1447 1444 1442 1439 1437 1436 1435 1433 1429 1425 1419
1601 1599 1595 1591 1586 1581 1575 1570 1564 1558 1552 1547 1541 1536 1531 1525 1520 1514 1509 1503 1497 1491 1486 1481 1475 1471 1466 1461 1457 1452 1448 1445 1442 1439 1436 1433 1430 1429 1428 1427 1426 1423 1418
1600 1598 1594 1589 1585 1579 1574 1569 1563 1557 1551 1545 1539 1534 1528 1523 1518 1512 1507 1501 1495 1489 1484 1478 1472 1467 1462 1457 1453 1448 1444 1440 1437 1434 1431 1427 1424 1422 1420 1419 1420 1420 1417
1599 1596 1593 1588 1583 1578 1573 1568 1562 1556 1550 1544 1538 1532 1526 1521 1515 1510 1504 1498 1493 1487 1481 1475 1469 1464 1459 1454 1449 1444 1440 1436 1432 1429 1425 1421 1418 1415 1413 1411 1410 1411 1412
1598 1595 1591 1587 1582 1577 1572 1566 1560 1554 1547 1541 1535 1529 1523 1518 1512 1507 1501 1495 1490 1484 1478 1472 1466 1461 1455 1450 1445 1440 1436 1432 1428 1425 1421 1416 1412 1409 1406 1404 1402 1402 1403
1596 1593 1589 1585 1580 1575 1570 1564 1558 1552 1545 1539 1532 1526 1520 1514 1509 1503 1498 1492 1487 1481 1476 1470 1464 1458 1452 1447 1442 1437 1432 1428 1425 1421 1417 1412 1408 1404 1400 1397 1395 1394 1395
1595 1591 1588 1583 1579 1574 1568 1562 1556 1550 1543 1536 1530 1523 1517 1511 1505 1499 1494 1489 1484 1478 1473 1467 1461 1455 1449 1444 1439 1434 1429 1426 1423 1419 1414 1409 1404 1400 1396 1392 1389 1387 1387
1593 1590 1586 1582 1577 1572 1567 1561 1554 1548 1541 1534 1527 1520 1514 1508 1502 1496 1491 1486 1481 1476 1470 1464 1458 1452 1446 1441 1436 1431 1427 1423 1420 1416 1411 1406 1402 1397 1392 1388 1384 1381 1380
1592 1589 1585 1581 1576 1570 1564 1559 1552 1546 1539 1532 1525 1518 1512 1506 1500 1494 1489 1484 1478 1473 1468 1462 1456 1450 1444 1439 1434 1429 1424 1421 1417 1414 1409 1404 1400 1395 1390 1385 1381 1377 1375
1591 1588 1584 1579 1574 1568 1562 1556 1550 1543 1537 1529 1523 1516 1510 1504 1499 1493 1487 1482 1476 1471 1465 1459 1454 1448 1443 1437 1432 1426 1422 1419 1416 1412 1408 1403 1398 1393 1387 1383 1378 1375 1372
1590 1587 1583 1578 1573 1568 1562 1555 1548 1542 1534 1527 1521 1515 1509 1503 1497 1492 1486 1480 1475 1469 1463 1458 1452 1447 1441 1436 1430 1425 1421 1418 1415 1412 1408 1403 1398 1393 1387 1382 1377 1373 1371
1589 1585 1581 1577 1572 1567 1561 1555 1548 1540 1532 1526 1521 1515 1508 1502 1497 1491 1485 1479 1474 1468 1462 1457 1452 1446 1441 1435 1430 1425 1421 1419 1416 1412 1409 1405 1400 1396 1390 1384 1379 1375 1372
1588 1585 1581 1576 1571 1565 1560 1553 1545 1538 1532 1526 1520 1513 1508 1502 1496 1490 1485 1479 1474 1468 1463 1457 1452 1447 1442 1436 1431 1426 1423 1420 1417 1414 1411 1408 1404 1399 1393 1387 1383 1379 1376
1586 1583 1580 1575 1570 1565 1559 1551 1544 1538 1532 1525 1519 1514 1508 1502 1497 1491 1485 1480 1475 1469 1464 1458 1454 1449 1444 1439 1434 1430 1426 1423 1420 1417 1414 1412 1408 1403 1398 1392 1388 1384 1380
1585 1582 1579 1574 1569 1564 1557 1551 1545 1539 1533 1526 1520 1514 1509 1503 1498 1492 1486 1481 1476 1470 1465 1460 1456 1452 1448 1443 1438 1434 1430 1427 1425 1422 1419 1416 1412 1408 1403 1399 1395 1392 1387
1584 1581 1578 1573 1569 1563 1557 1552 1546 1540 1533 1526 1520 1514 1509 1504 1498 1493 1487 1482 1477 1471 1467 1463 1459 1455 1451 1447 1443 1438 1435 1432 1429 1427 1424 1421 1417 1413 1409 1404 1401 1397 1392
1583 1580 1577 1573 1568 1563 1558 1552 1547 1540 1533 1526 1521 1515 1510 1505 1499 1493 1488 1483 1478 1474 1469 1465 1462 1458 1455 1450 1446 1442 1439 1436 1433 1431 1429 1425 1421 1416 1412 1409 1406 1402 1398
1582 1579 1576 1572 1567 1563 1558 1553 1547 1541 1534 1527 1522 1516 1511 1505 1500 1495 1490 1485 1480 1476 1472 1469 1465 1462 1459 1455 1450 1446 1443 1440 1437 1433 1430 1427 1424 1420 1417 1414 1410 1407 1406
1581 1578 1575 1571 1567 1563 1558 1554 1548 1542 1535 1529 1523 1518 1513 1507 1502 1497 1492 1488 1484 1480 1476 1472 1469 1466 1462 1460 1456 1452 1448 1445 1441 1437 1433 1430 1427 1424 1421 1419 1416 1414 1412
1580 1577 1574 1571 1567 1563 1559 1554 1549 1543 1536 1530 1525 1520 1514 1509 1504 1499 1494 1490 1487 1483 1479 1476 1472 1469 1467 1463 1460 1457 1453 1450 1446 1441 1438 1435 1432 1430 1427 1425 1422 1420 1418